Showing default

ZHIHUI TIANWANG-1 01A, 59705

Orbit data source: Space-Track

ZHIHUI TIANWANG-1 01A, 59705 is a Chinese payload satellite in MEO that was launched on Thu, 09 May 2024 UTC via a CHANG ZHENG 3B launch vehicle from the Xichang Space Center, China (XSC). Payload-class satellites include a variety of spacecraft equipped with specific instruments for various scientific and technological missions. These include communications satellites like Starlink; space stations such as the ISS; scientific satellites like the Hubble; Earth observation satellites from companies like Planet Labs, Umbra, and HawkEye 360; GPS; miniature CubeSats for education and research; and military/defense satellites.

Loading next visibility...
Identifier
59705, 2024-087A
Orbit
MEO
Country
Flag of CNCN / PRC
Related business
Manufacturer
SAST
Mission
Operational Commercial Communications
Bus & Motor
ZHTW, LAE?
Mass
~2,000 kg wet, ~2,000 kg dry
Launch date (UTC)
2024-05-09 (2 years ago)
Launch vehicle
CHANG ZHENG 3B
Launch site
Xichang Space Center, China (XSC)
Object type
Payload
Rocket body
Debris
Shape & HBR
Box + 2 Pan, 10.0 m
Radar Cross Section
17.671 m², Large (>1 m²)

Expand to show TLE details & history
Last TLE update: 1 day ago

TLE from 1 day ago
0 ZHIHUI TIANWANG-1 01A
1 59705U 24087A   26172.11751975  .00000075  00000-0  00000+0 0  9992
2 59705  53.1288 170.4198 0027549 206.1856 153.6810  2.00563854 15384
Epoch: 2026-06-21T02:49Z
TLE epoch observation values (Epoch: 2026-06-21T02:49:13.706Z)
Latitude
-0.00001°
Longitude
-141.21357°
Altitude
20,248.025 km
Speed
3.864 km/s
True Right ascension
11h 21m 39s
True Declination
0° 00' 00"
Sunlit
Object was in daylight at epoch
Visualization orbit readout
Latitude
Unknown
Longitude
Unknown
Altitude
Unknown
Speed
Unknown
Apparent Right ascension
Unknown
Apparent Declination
Unknown
Sunlit
N/A
Visualization observer readout
Local Sidereal Time
21:24:14
Azimuth
Unknown
Elevation
Unknown
Doppler factor
Unknown
Orbital elements
Apogee altitude
20,255.443 km
Perigee altitude
20,109.1 km
Semi-major axis
26,560.408 km
Eccentricity
0.00275
Inclination
53.1288°
RAAN
170.4198°
Arg. of periapsis
206.1856°
True anomaly
153.82054°
Mean anomaly
153.681°
Eccentric anomaly
153.75081°
Mean motion
0.50141 °/min
Orbital period
717.98 mins
BSTAR
0
Loading maneuver chart data...
Computing Atmospheric mass density...
Loading historical data...
Loading historical data...
Loading historical data...
Loading historical data...
Loading historical data...
Loading historical data...
Loading historical data...
Other satellites on launch #87 in the year 2024 (2024-05-09 UTC)

Documentation

Showing up to 5 results
|